H1 CPF 2 NER 2021 2 6 9 037 01 glonass132 H2 1401201 9132 39620 2021 2 6 0 0 0 2021 2 9 23 45 0 900 1 1 0 0 0 1 H9 10 0 59251 0.00000 0 -14732304.426 -14085167.655 -15279512.749 10 0 59251 900.00000 0 -15705388.849 -15529969.364 -12690127.675 10 0 59251 1800.00000 0 -16605588.104 -16615159.143 -9853221.054 10 0 59251 2700.00000 0 -17371727.482 -17337809.744 -6824123.726 10 0 59251 3600.00000 0 -17945200.722 -17708416.602 -3661928.224 10 0 59251 4500.00000 0 -18272586.131 -17750230.590 -428320.065 10 0 59251 5400.00000 0 -18308058.058 -17498062.046 2813642.419 10 0 59251 6300.00000 0 -18015489.977 -16996608.393 6000774.167 10 0 59251 7200.00000 0 -17370159.042 -16298378.410 9071009.138 10 0 59251 8100.00000 0 -16359979.332 -15461303.305 11964619.899 10 0 59251 9000.00000 0 -14986211.521 -14546137.860 14625386.066 10 0 59251 9900.00000 0 -13263619.411 -13613763.371 17001688.036 10 0 59251 10800.00000 0 -11220067.450 -12722507.561 19047504.661 10 0 59251 11700.00000 0 -8895577.059 -11925595.177 20723295.955 10 0 59251 12600.00000 0 -6340882.335 -11268836.561 21996754.680 10 0 59251 13500.00000 0 -3615546.299 -10788650.648 22843413.759 10 0 59251 14400.00000 0 -785716.683 -10510504.097 23247099.532 10 0 59251 15300.00000 0 2078385.278 -10447830.293 23200223.978 10 0 59251 16200.00000 0 4905139.308 -10601471.618 22703912.095 10 0 59251 17100.00000 0 7624254.024 -10959666.477 21767963.600 10 0 59251 18000.00000 0 10169436.776 -11498580.030 20410650.918 10 0 59251 18900.00000 0 12480896.851 -12183355.244 18658358.195 10 0 59251 19800.00000 0 14507580.564 -12969639.623 16545068.554 10 0 59251 20700.00000 0 16209047.777 -13805523.626 14111709.385 10 0 59251 21600.00000 0 17556914.217 -14633809.945 11405367.701 10 0 59251 22500.00000 0 18535801.535 -15394519.362 8478389.776 10 0 59251 23400.00000 0 19143757.034 -16027529.065 5387381.380 10 0 59251 24300.00000 0 19392126.619 -16475233.752 2192126.642 10 0 59251 25200.00000 0 19304886.787 -16685118.668 -1045554.800 10 0 59251 26100.00000 0 18917463.640 -16612137.011 -4262991.402 10 0 59251 27000.00000 0 18275088.020 -16220791.914 -7397862.165 10 0 59251 27900.00000 0 17430755.132 -15486834.990 -10389395.542 10 0 59251 28800.00000 0 16442873.462 -14398509.054 -13179542.058 10 0 59251 29700.00000 0 15372700.978 -12957281.162 -15714098.334 10 0 59251 30600.00000 0 14281675.639 -11178033.036 -17943760.880 10 0 59251 31500.00000 0 13228752.013 -9088698.430 -19825089.013 10 0 59251 32400.00000 0 12267855.856 -6729359.853 -21321357.971 10 0 59251 33300.00000 0 11445563.909 -4150839.632 -22403285.122 10 0 59251 34200.00000 0 10799107.128 -1412841.619 -23049614.355 10 0 59251 35100.00000 0 10354782.289 1418281.220 -23247546.414 10 0 59251 36000.00000 0 10126839.992 4272042.122 -22993005.672 10 0 59251 36900.00000 0 10116897.280 7076515.093 -22290736.910 10 0 59251 37800.00000 0 10313900.991 9761097.170 -21154228.922 10 0 59251 38700.00000 0 10694644.677 12259223.377 -19605465.124 10 0 59251 39600.00000 0 11224818.290 14510920.706 -17674504.915 10 0 59251 40500.00000 0 11860546.919 16465093.856 -15398902.986 10 0 59251 41400.00000 0 12550353.653 18081446.385 -12822977.370 10 0 59251 42300.00000 0 13237463.116 19331956.038 -9996940.386 10 0 59251 43200.00000 0 13862347.153 20201841.960 -6975909.812 10 0 59251 44100.00000 0 14365403.462 20689983.166 -3818820.410 10 0 59251 45000.00000 0 14689651.881 20808771.152 -587258.410 10 0 59251 45900.00000 0 14783332.250 20583404.053 2655756.697 10 0 59251 46800.00000 0 14602291.973 20050653.752 5847017.507 10 0 59251 47700.00000 0 14112060.652 19257160.117 8924375.025 10 0 59251 48600.00000 0 13289522.952 18257326.684 11827960.064 10 0 59251 49500.00000 0 12124118.362 17110908.975 14501354.723 10 0 59251 50400.00000 0 10618517.222 15880399.289 16892690.288 10 0 59251 51300.00000 0 8788744.904 14628319.890 18955650.078 10 0 59251 52200.00000 0 6663749.617 13414539.534 20650358.217 10 0 59251 53100.00000 0 4284432.857 12293726.547 21944138.005 10 0 59251 54000.00000 0 1702183.845 11313044.882 22812126.684 10 0 59251 54900.00000 0 -1023020.316 10510188.680 23237736.477 10 0 59251 55800.00000 0 -3824869.422 9911835.961 23212954.810 10 0 59251 56700.00000 0 -6633236.434 9532584.109 22738479.831 10 0 59251 57600.00000 0 -9376851.661 9374409.506 21823690.173 10 0 59251 58500.00000 0 -11986025.192 9426671.865 20486450.859 10 0 59251 59400.00000 0 -14395306.492 9666661.313 18752759.909 10 0 59251 60300.00000 0 -16545973.019 10060664.066 16656242.792 10 0 59251 61200.00000 0 -18388246.687 10565501.389 14237504.370 10 0 59251 62100.00000 0 -19883148.348 11130477.201 11543350.287 10 0 59251 63000.00000 0 -21003915.123 11699653.000 8625891.886 10 0 59251 63900.00000 0 -21736923.069 12214355.381 5541550.907 10 0 59251 64800.00000 0 -22082077.853 12615811.692 2349981.898 10 0 59251 65700.00000 0 -22052657.714 12847803.957 -887068.100 10 0 59251 66600.00000 0 -21674615.301 12859230.137 -4106941.633 10 0 59251 67500.00000 0 -20985367.319 12606465.308 -7247272.879 10 0 59251 68400.00000 0 -20032121.962 12055423.211 -10247187.218 10 0 59251 69300.00000 0 -18869813.361 11183230.723 -13048475.638 10 0 59251 70200.00000 0 -17558728.736 9979443.475 -15596721.609 10 0 59251 71100.00000 0 -16161926.873 8446749.598 -17842358.771 10 0 59251 72000.00000 0 -14742555.572 6601129.702 -19741638.742 10 0 59251 72900.00000 0 -13361180.180 4471463.623 -21257490.021 10 0 59251 73800.00000 0 -12073235.201 2098597.482 -22360250.799 10 0 59251 74700.00000 0 -10926706.216 -466092.714 -23028260.630 10 0 59251 75600.00000 0 -9960139.979 -3162583.601 -23248298.601 10 0 59251 76500.00000 0 -9201067.115 -5924456.795 -23015858.336 10 0 59251 77400.00000 0 -8664904.742 -8681428.695 -22335253.226 10 0 59251 78300.00000 0 -8354386.270 -11362053.381 -21219548.544 10 0 59251 79200.00000 0 -8259543.399 -13896486.338 -19690320.487 10 0 59251 80100.00000 0 -8358241.948 -16219193.481 -17777245.641 10 0 59251 81000.00000 0 -8617249.364 -18271491.780 -15517528.004 10 0 59251 81900.00000 0 -8993788.904 -20003814.430 -12955174.092 10 0 59251 82800.00000 0 -9437514.344 -21377604.672 -10140130.196 10 0 59251 83700.00000 0 -9892820.618 -22366758.109 -7127298.947 10 0 59251 84600.00000 0 -10301391.133 -22958552.478 -3975455.179 10 0 59251 85500.00000 0 -10604871.962 -23154025.753 -746083.615 10 0 59252 0.00000 0 -10747557.640 -22967787.357 2497837.303 10 0 59252 900.00000 0 -10678972.333 -22427271.448 5693080.319 10 0 59252 1800.00000 0 -10356236.368 -21571465.987 8777415.865 10 0 59252 2700.00000 0 -9746114.504 -20449172.548 11690835.496 10 0 59252 3600.00000 0 -8826660.508 -19116873.246 14376726.324 10 0 59252 4500.00000 0 -7588386.687 -17636296.375 16782973.007 10 0 59252 5400.00000 0 -6034909.837 -16071785.323 18862965.696 10 0 59252 6300.00000 0 -4183046.663 -14487582.615 20576494.785 10 0 59252 7200.00000 0 -2062355.485 -12945143.847 21890515.990 10 0 59252 8100.00000 0 285855.818 -11500593.974 22779772.431 10 0 59252 9000.00000 0 2810013.571 -10202431.601 23227263.392 10 0 59252 9900.00000 0 5450191.467 -9089575.788 23224552.563 10 0 59252 10800.00000 0 8140373.596 -8189834.940 22771911.679 10 0 59252 11700.00000 0 10810973.884 -7518859.392 21878298.387 10 0 59252 12600.00000 0 13391508.291 -7079619.079 20561170.076 10 0 59252 13500.00000 0 15813310.409 -6862425.875 18846138.099 10 0 59252 14400.00000 0 18012179.636 -6845497.839 16766469.422 10 0 59252 15300.00000 0 19930853.908 -6996040.453 14362445.210 10 0 59252 16200.00000 0 21521206.337 -7271798.817 11680588.231 10 0 59252 17100.00000 0 22746076.296 -7623015.562 8772773.039 10 0 59252 18000.00000 0 23580660.185 -7994712.625 5695235.122 10 0 59252 18900.00000 0 24013405.084 -8329201.660 2507496.875 10 0 59252 19800.00000 0 24046368.615 -8568718.321 -728770.118 10 0 59252 20700.00000 0 23695030.062 -8658070.309 -3950925.573 10 0 59252 21600.00000 0 22987560.329 -8547188.244 -7096562.022 10 0 59252 22500.00000 0 21963580.540 -8193472.007 -10104704.958 10 0 59252 23400.00000 0 20672460.245 -7563833.404 -12916988.906 10 0 59252 24300.00000 0 19171225.396 -6636348.155 -15478787.087 10 0 59252 25200.00000 0 17522162.567 -5401446.100 -17740272.941 10 0 59252 26100.00000 0 15790218.821 -3862587.503 -19657392.789 10 0 59252 27000.00000 0 14040305.358 -2036394.471 -21192730.495 10 0 59252 27900.00000 0 12334617.435 47770.932 -22316246.845 10 0 59252 28800.00000 0 10730082.726 2348767.096 -23005878.498 10 0 59252 29700.00000 0 9276045.278 4815134.497 -23247983.949 10 0 59252 30600.00000 0 8012282.593 7387000.058 -23037626.742 10 0 59252 31500.00000 0 6967439.814 9998346.662 -22378689.154 10 0 59252 32400.00000 0 6157947.543 12579554.623 -21283812.829 10 0 59252 33300.00000 0 5587469.587 15060109.790 -19774166.234 10 0 59252 34200.00000 0 5246904.579 17371365.295 -17879042.270 10 0 59252 35100.00000 0 5114941.814 19449241.120 -15635292.988 10 0 59252 36000.00000 0 5159147.812 21236747.714 -13086611.776 10 0 59252 36900.00000 0 5337537.328 22686226.801 -10282676.925 10 0 59252 37800.00000 0 5600561.334 23761214.350 -7278173.605 10 0 59252 38700.00000 0 5893426.388 24437846.572 -4131714.091 10 0 59252 39600.00000 0 6158645.300 24705749.321 -904678.703 10 0 59252 40500.00000 0 6338708.852 24568373.557 2339998.394 10 0 59252 41400.00000 0 6378763.166 24042763.400 5539073.034 10 0 59252 42300.00000 0 6229177.208 23158767.832 8630238.401 10 0 59252 43200.00000 0 5847889.939 21957730.992 11553349.960 10 0 59252 44100.00000 0 5202436.507 20490718.295 14251602.847 10 0 59252 45000.00000 0 4271567.113 18816355.167 16672637.912 10 0 59252 45900.00000 0 3046390.042 16998371.236 18769554.727 10 0 59252 46800.00000 0 1530990.948 15102954.626 20501812.271 10 0 59252 47700.00000 0 -257496.997 13196028.294 21836000.701 10 0 59252 48600.00000 0 -2289374.289 11340562.679 22746470.680 10 0 59252 49500.00000 0 -4523386.771 9594036.432 23215809.845 10 0 59252 50400.00000 0 -6908224.974 8006150.077 23235159.001 10 0 59252 51300.00000 0 -9384448.443 6616886.075 22804363.843 10 0 59252 52200.00000 0 -11886755.277 5454993.815 21931960.885 10 0 59252 53100.00000 0 -14346503.148 4536960.256 20634999.186 10 0 59252 54000.00000 0 -16694378.315 3866506.545 18938702.200 10 0 59252 54900.00000 0 -18863103.313 3434629.376 16875976.636 10 0 59252 55800.00000 0 -20790072.550 3220183.506 14486777.758 10 0 59252 56700.00000 0 -22419808.153 3190979.750 11817342.866 10 0 59252 57600.00000 0 -23706135.663 3305351.736 8919306.854 10 0 59252 58500.00000 0 -24613990.424 3514125.572 5848715.904 10 0 59252 59400.00000 0 -25120780.538 3762909.989 2664957.107 10 0 59252 60300.00000 0 -25217250.116 3994611.258 -570376.574 10 0 59252 61200.00000 0 -24907806.895 4152067.801 -3794665.172 10 0 59252 62100.00000 0 -24210300.162 4180694.122 -6945462.661 10 0 59252 63000.00000 0 -23155257.469 4031023.049 -9961697.648 10 0 59252 63900.00000 0 -21784610.949 3661039.130 -12784851.084 10 0 59252 64800.00000 0 -20149965.219 3038204.244 -15360088.642 10 0 59252 65700.00000 0 -18310477.954 2141088.995 -17637326.015 10 0 59252 66600.00000 0 -16330440.532 960539.483 -19572206.332 10 0 59252 67500.00000 0 -14276658.847 -499671.869 -21126970.500 10 0 59252 68400.00000 0 -12215742.973 -2222741.431 -22271203.094 10 0 59252 69300.00000 0 -10211418.591 -4179282.684 -22982438.523 10 0 59252 70200.00000 0 -8321972.457 -6328311.883 -23246614.799 10 0 59252 71100.00000 0 -6597938.950 -8618732.575 -23058364.989 10 0 59252 72000.00000 0 -5080125.060 -10991259.162 -22421139.379 10 0 59252 72900.00000 0 -3798057.122 -13380700.938 -21347154.703 10 0 59252 73800.00000 0 -2768915.135 -15718512.292 -19857170.068 10 0 59252 74700.00000 0 -1997000.016 -17935502.843 -17980092.792 10 0 59252 75600.00000 0 -1473756.554 -19964593.958 -15752420.884 10 0 59252 76500.00000 0 -1178351.085 -21743505.505 -13217532.378 10 0 59252 77400.00000 0 -1078779.139 -23217259.024 -10424835.283 10 0 59252 78300.00000 0 -1133455.318 -24340391.022 -7428795.002 10 0 59252 79200.00000 0 -1293216.736 -25078782.173 -4287858.990 10 0 59252 80100.00000 0 -1503653.386 -25411024.502 -1063300.936 10 0 59252 81000.00000 0 -1707664.511 -25329268.573 2181991.376 10 0 59252 81900.00000 0 -1848130.352 -24839515.067 5384759.143 10 0 59252 82800.00000 0 -1870583.796 -23961339.202 8482620.368 10 0 59252 83700.00000 0 -1725766.756 -22727060.888 11415296.519 10 0 59252 84600.00000 0 -1371961.458 -21180397.241 14125792.830 10 0 59252 85500.00000 0 -776997.056 -19374656.099 16561508.342 10 0 59253 0.00000 0 80153.598 -17370548.372 18675253.888 10 0 59253 900.00000 0 1208254.742 -15233712.544 20426158.801 10 0 59253 1800.00000 0 2603211.281 -13032056.352 21780449.100 10 0 59253 2700.00000 0 4248021.657 -10833027.472 22712084.162 10 0 59253 3600.00000 0 6113278.940 -8700926.478 23203240.835 10 0 59253 4500.00000 0 8158199.854 -6694373.764 23244637.589 10 0 59253 5400.00000 0 10332137.716 -4864033.972 22835694.313 10 0 59253 6300.00000 0 12576516.360 -3250690.559 21984526.336 10 0 59253 7200.00000 0 14827104.797 -1883748.156 20707774.070 10 0 59253 8100.00000 0 17016538.842 -780222.371 19030272.501 10 0 59253 9000.00000 0 19076986.098 55743.449 16984567.269 10 0 59253 9900.00000 0 20942844.892 632816.545 14610286.681 10 0 59253 10800.00000 0 22553366.577 971872.563 11953381.255 10 0 59253 11700.00000 0 23855093.659 1104879.293 9065244.619 10 0 59253 12600.00000 0 24804013.539 1073313.660 6001731.754 10 0 59253 13500.00000 0 25367339.222 926178.556 2822092.247 10 0 59253 14400.00000 0 25524843.278 717702.494 -412162.042 10 0 59253 15300.00000 0 25269689.499 504818.246 -3638434.158 10 0 59253 16200.00000 0 24608727.136 344526.004 -6794242.354 10 0 59253 17100.00000 0 23562234.551 291251.615 -9818421.236 10 0 59253 18000.00000 0 22163121.793 394310.968 -12652301.016 10 0 59253 18900.00000 0 20455623.950 695587.603 -15240842.534 10 0 59253 19800.00000 0 18493538.245 1227522.140 -17533706.270 10 0 59253 20700.00000 0 16338077.006 2011499.449 -19486234.480 10 0 59253 21600.00000 0 14055424.713 3056703.306 -21060327.208 10 0 59253 22500.00000 0 11714099.944 4359488.998 -22225194.662 10 0 59253 23400.00000 0 9382231.541 5903302.874 -22957970.579 10 0 59253 24300.00000 0 7124862.224 7659154.999 -23244173.780 10 0 59253 25200.00000 0 5001392.104 9586627.911 -23078007.791 10 0 59253 26100.00000 0 3063269.135 11635381.651 -22462491.484 10 0 59253 27000.00000 0 1352023.517 13747094.138 -21409416.835 10 0 59253 27900.00000 0 -102271.185 15857757.121 -19939133.328 10 0 59253 28800.00000 0 -1282045.098 17900232.278 -18080162.002 10 0 59253 29700.00000 0 -2182742.961 19806960.487 -15868645.704 10 0 59253 30600.00000 0 -2812777.389 21512710.142 -13347645.597 10 0 59253 31500.00000 0 -3192926.694 22957248.028 -10566297.512 10 0 59253 32400.00000 0 -3355203.525 24087819.262 -7578844.861 10 0 59253 33300.00000 0 -3341243.430 24861330.520 -4443567.744 10 0 59253 34200.00000 0 -3200283.255 25246143.317 -1221630.450 10 0 59253 35100.00000 0 -2986817.155 25223400.890 2024128.584 10 0 59253 36000.00000 0 -2758031.850 24787832.311 5230438.987 10 0 59253 36900.00000 0 -2571132.194 23948000.077 8334846.704 10 0 59253 37800.00000 0 -2480672.551 22725981.551 11276942.294 10 0 59253 38700.00000 0 -2536008.835 21156498.862 13999544.088 10 0 59253 39600.00000 0 -2778980.261 19285535.538 16449812.184 10 0 59253 40500.00000 0 -3241919.534 17168499.683 18580271.420 10 0 59253 41400.00000 0 -3946075.534 14868012.342 20349723.800 10 0 59253 42300.00000 0 -4900514.530 12451415.006 21724033.453 10 0 59253 43200.00000 0 -6101545.377 9988101.122 22676770.373 10 0 59253 44100.00000 0 -7532691.853 7546783.048 23189702.151 10 0 59253 45000.00000 0 -9165212.298 5192807.718 23253126.028 10 0 59253 45900.00000 0 -10959144.088 2985631.331 22866036.738 10 0 59253 46800.00000 0 -12864828.870 976556.122 22036128.549 10 0 59253 47700.00000 0 -14824854.906 -793179.095 20779632.800 10 0 59253 48600.00000 0 -16776336.037 -2293877.900 19120995.017 10 0 59253 49500.00000 0 -18653433.246 -3508375.966 17092398.244 10 0 59253 50400.00000 0 -20390014.944 -4432502.702 14733141.778 10 0 59253 51300.00000 0 -21922346.629 -5074997.789 12088886.870 10 0 59253 52200.00000 0 -23191699.321 -5456887.715 9210783.048 10 0 59253 53100.00000 0 -24146769.286 -5610349.433 6154490.980 10 0 59253 54000.00000 0 -24745809.212 -5577109.256 2979119.478 10 0 59253 54900.00000 0 -24958382.495 -5406444.195 -253904.060 10 0 59253 55800.00000 0 -24766667.505 -5152869.323 -3482009.076 10 0 59253 56700.00000 0 -24166256.996 -4873607.885 -6642681.479 10 0 59253 57600.00000 0 -23166418.341 -4625950.077 -9674665.177 10 0 59253 58500.00000 0 -21789802.438 -4464611.298 -12519142.840 10 0 59253 59400.00000 0 -20071611.822 -4439201.053 -15120873.505 10 0 59253 60300.00000 0 -18058260.856 -4591909.486 -17429265.209 10 0 59253 61200.00000 0 -15805582.131 -4955509.773 -19399361.756 10 0 59253 62100.00000 0 -13376652.110 -5551761.861 -20992724.279 10 0 59253 63000.00000 0 -10839325.101 -6390286.572 -22178190.021 10 0 59253 63900.00000 0 -8263577.239 -7467959.650 -22932492.824 10 0 59253 64800.00000 0 -5718770.245 -8768853.752 -23240732.440 10 0 59253 65700.00000 0 -3270948.611 -10264733.463 -23096682.360 10 0 59253 66600.00000 0 -980282.892 -11916085.001 -22502928.961 10 0 59253 67500.00000 0 1101233.965 -13673639.653 -21470837.895 10 0 59253 68400.00000 0 2931740.597 -15480328.705 -20020347.049 10 0 59253 69300.00000 0 4481029.143 -17273588.898 -18179588.885 10 0 59253 70200.00000 0 5731570.946 -18987922.027 -15984348.562 10 0 59253 71100.00000 0 6679002.774 -20557600.887 -13477367.693 10 0 59253 72000.00000 0 7332053.186 -21919406.888 -10707507.160 10 0 59253 72900.00000 0 7711912.808 -23015282.846 -7728785.588 10 0 59253 73800.00000 0 7851076.196 -23794787.700 -4599312.946 10 0 59253 74700.00000 0 7791705.808 -24217248.090 -1380141.415 10 0 59253 75600.00000 0 7583589.396 -24253514.786 1865942.509 10 0 59253 76500.00000 0 7281779.595 -23887248.938 5075659.364 10 0 59253 77400.00000 0 6944018.167 -23115683.510 8186485.340 10 0 59253 78300.00000 0 6628056.322 -21949828.044 11137882.236 10 0 59253 79200.00000 0 6388986.658 -20414108.857 13872483.418 10 0 59253 80100.00000 0 6276701.147 -18545461.054 16337211.755 10 0 59253 81000.00000 0 6333583.582 -16391911.978 18484307.531 10 0 59253 81900.00000 0 6592534.246 -14010716.948 20272246.667 10 0 59253 82800.00000 0 7075409.747 -11466126.699 21666532.255 10 0 59253 83700.00000 0 7791942.938 -8826880.678 22640345.452 10 0 59253 84600.00000 0 8739187.213 -6163531.010 23175044.817 10 0 59253 85500.00000 0 9901507.253 -3545708.297 23260506.287 10 0 59254 0.00000 0 11251115.464 -1039441.869 22895299.085 10 0 59254 900.00000 0 12749131.115 1295355.867 22086695.769 10 0 59254 1800.00000 0 14347116.647 3407138.926 20850517.801 10 0 59254 2700.00000 0 15989028.166 5254619.438 19210820.231 10 0 59254 3600.00000 0 17613498.228 6808226.887 17199422.333 10 0 59254 4500.00000 0 19156357.022 8051075.690 14855293.091 10 0 59254 5400.00000 0 20553287.811 8979403.773 12223803.019 10 0 59254 6300.00000 0 21742507.115 9602465.625 9355855.919 10 0 59254 7200.00000 0 22667358.981 9941885.663 6306916.343 10 0 59254 8100.00000 0 23278716.059 10030499.839 3135950.348 10 0 59254 9000.00000 0 23537087.834 9910734.327 -95701.292 10 0 59254 9900.00000 0 23414348.124 9632589.146 -3325496.710 10 0 59254 10800.00000 0 22895009.321 9251311.026 -6490891.840 10 0 59254 11700.00000 0 21976989.274 8824852.770 -9530542.289 10 0 59254 12600.00000 0 20671837.428 8411225.453 -12385485.538 10 0 59254 13500.00000 0 19004409.031 8065854.572 -15000281.070 10 0 59254 14400.00000 0 17011999.017 7839051.409 -17324086.589 10 0 59254 15300.00000 0 14742969.549 7773706.469 -19311649.403 10 0 59254 16200.00000 0 12254926.388 7903302.944 -20924193.530 10 0 59254 17100.00000 0 9612518.068 8250335.178 -22130184.869 10 0 59254 18000.00000 0 6884947.988 8825200.416 -22905958.824 10 0 59254 18900.00000 0 4143301.738 9625612.588 -23236197.306 10 0 59254 19800.00000 0 1457800.061 10636565.088 -23114244.736 10 0 59254 20700.00000 0 -1104908.389 11830846.405 -22542255.624 10 0 59254 21600.00000 0 -3484301.726 13170089.124 -21531169.531 10 0 59254 22500.00000 0 -5628280.067 14606309.982 -20100512.539 10 0 59254 23400.00000 0 -7495104.854 16083877.505 -18278027.891 10 0 59254 24300.00000 0 -9054900.669 17541825.101 -16099141.969 10 0 59254 25200.00000 0 -10290656.203 18916412.244 -13606275.353 10 0 59254 26100.00000 0 -11198682.196 20143825.206 -10848012.153 10 0 59254 27000.00000 0 -11788507.448 21162902.302 -7878144.099 10 0 59254 27900.00000 0 -12082218.106 21917767.164 -4754608.702 10 0 59254 28800.00000 0 -12113269.439 22360257.173 -1538343.530 10 0 59254 29700.00000 0 -11924822.205 22452042.941 1707919.502 10 0 59254 30600.00000 0 -11567676.202 22166347.977 4920894.562 10 0 59254 31500.00000 0 -11097890.895 21489195.118 8037990.878 10 0 59254 32400.00000 0 -10574196.320 20420126.801 10998544.280 10 0 59254 33300.00000 0 -10055306.068 18972369.097 13745005.953 10 0 59254 34200.00000 0 -9597247.815 17172433.384 16224064.258 10 0 59254 35100.00000 0 -9250825.463 15059173.524 18387677.534 10 0 59254 36000.00000 0 -9059320.569 12682339.377 20193998.079 10 0 59254 36900.00000 0 -9056529.882 10100688.477 21608170.200 10 0 59254 37800.00000 0 -9265220.859 7379735.741 22602988.206 10 0 59254 38700.00000 0 -9696068.948 4589235.471 23159403.304 10 0 59254 39600.00000 0 -10347119.789 1800500.493 23266871.414 10 0 59254 40500.00000 0 -11203797.435 -916330.920 22923537.089 10 0 59254 41400.00000 0 -12239456.937 -3494968.264 22136251.625 10 0 59254 42300.00000 0 -13416457.187 -5875473.063 20920426.432 10 0 59254 43200.00000 0 -14687708.650 -8006492.656 19299725.446 10 0 59254 44100.00000 0 -15998631.302 -9847133.397 17305602.987 10 0 59254 45000.00000 0 -17289441.361 -11368397.968 14976696.041 10 0 59254 45900.00000 0 -18497672.114 -12554129.518 12358082.263 10 0 59254 46800.00000 0 -19560824.554 -13401425.419 9500417.219 10 0 59254 47700.00000 0 -20419038.127 -13920504.933 6458966.540 10 0 59254 48600.00000 0 -21017670.926 -14134037.447 3292550.488 10 0 59254 49500.00000 0 -21309682.170 -14075959.926 62420.017 10 0 59254 50400.00000 0 -21257717.563 -13789833.181 -3168915.009 10 0 59254 51300.00000 0 -20835810.140 -13326805.584 -6338883.923 10 0 59254 52200.00000 0 -20030624.657 -12743269.217 -9386057.440 10 0 59254 53100.00000 0 -18842192.266 -12098306.296 -12251331.220 10 0 59254 54000.00000 0 -17284102.959 -11451032.703 -14879068.470 10 0 59254 54900.00000 0 -15383145.665 -10857950.026 -17218179.662 10 0 59254 55800.00000 0 -13178408.681 -10370417.483 -19223118.407 10 0 59254 56700.00000 0 -10719875.545 -10032350.505 -20854773.999 10 0 59254 57600.00000 0 -8066572.542 -9878243.622 -22081242.858 10 0 59254 58500.00000 0 -5284342.938 -9931602.092 -22878463.188 10 0 59254 59400.00000 0 -2443338.890 -10203849.869 -23230699.643 10 0 59254 60300.00000 0 384665.912 -10693761.734 -23130867.484 10 0 59254 61200.00000 0 3129031.688 -11387445.516 -22580688.638 10 0 59254 62100.00000 0 5722961.691 -12258877.067 -21590675.295 10 0 59254 63000.00000 0 8106051.997 -13270967.260 -20179939.968 10 0 59254 63900.00000 0 10226575.041 -14377117.378 -18375834.497 10 0 59254 64800.00000 0 12043400.925 -15523198.177 -16213423.976 10 0 59254 65700.00000 0 13527475.526 -16649869.367 -13734805.142 10 0 59254 66600.00000 0 14662792.950 -17695141.184 -10988282.302 10 0 59254 67500.00000 0 15446821.510 -18597068.873 -8027417.071 10 0 59254 68400.00000 0 15890365.763 -19296464.770 -4909971.176 10 0 59254 69300.00000 0 16016871.371 -19739511.585 -1696764.216 10 0 59254 70200.00000 0 15861203.730 -19880164.624 1549529.786 10 0 59254 71100.00000 0 15467953.990 -19682239.743 4765621.795 10 0 59254 72000.00000 0 14889346.406 -19121097.520 7888857.012 10 0 59254 72900.00000 0 14182838.041 -18184851.781 10858447.942 10 0 59254 73800.00000 0 13408514.660 -16875051.207 13616665.871 10 0 59254 74700.00000 0 12626394.955 -15206805.715 16109966.533 10 0 59254 75600.00000 0 11893758.457 -13208353.007 18290027.783 10 0 59254 76500.00000 0 11262610.727 -10920084.492 20114679.340 10 0 59254 77400.00000 0 10777392.772 -8393072.556 21548707.340 10 0 59254 78300.00000 0 10473030.537 -5687161.646 22564519.451 10 0 59254 79200.00000 0 10373405.265 -2868703.406 23142659.343 10 0 59254 80100.00000 0 10490307.416 -8030.348 23272162.391 10 0 59254 81000.00000 0 10822916.205 2823227.407 22950747.620 10 0 59254 81900.00000 0 11357824.869 5554872.018 22184843.901 10 0 59254 82800.00000 0 12069609.093 8120802.722 20989451.246 10 0 59254 83700.00000 0 12921913.708 10461507.145 19387840.914 10 0 59254 84600.00000 0 13869011.636 12526278.179 17411100.576 10 0 59254 85500.00000 0 14857769.747 14275066.818 15097533.408 99